sat.trackr.live / text

‹ back to catalog

STARLINK-1417

NORAD 45693 · 2020-035AN

PAYLOAD ACTIVE UNKNOWN

§ Identity

Operator
Country
US
Launch date
2020-06-04
Launch site
AFETR
Launch vehicle
Mass (kg)
RCS (m²)

Purposes: comms

External: N2YO · Heavens-Above · Gunter

§ Orbital elements

Epoch: 2026-09-19T13:09:30.998016Z

Period
94.65 min
Inclination
53.0420°
Eccentricity
0.0004307
Mean motion
15.21336744 rev/d
Perigee alt
498.8 km
Apogee alt
504.8 km
Semi-major
6,879.9 km
B*
1.2202e-3
RAAN
249.5066°
Arg perigee
96.3648°
Mean anomaly
263.7838°
Rev number
34,832

§ Raw data

STARLINK-14171 45693U 20035AN  26262.54827544  .00027454  00000+0  12202-2 0  99942 45693  53.0420 249.5066 0004307  96.3648 263.7838 15.21336744348328

JSON: /api/v1/satellites/45693 · /tle

For live sub-satellite position, see the globe view (requires WebGL).

§ Visibility from observer

Set your observer location to see the next 7 days of passes ≥ 10°. The values pass through the URL so the page stays shareable.

No JS? Fill the form by hand. The geolocation button needs JavaScript.